SCP
0 1 1 1 1 1 1 0 0 0 0 0 0 0 0 0 0 0 0 0 0 1 1 1 1 1 1 1 1 1 1 1 0 0 0 1 1 0 0 0 0 0 0
1 1 1 1 1 1 1 0 0 0 0 0 0 0 0 0 0 0 0 0 0 1 1 1 1 1 1 1 1 1 1 1 1 0 0 0 0 0 0 1 1 1 1
1 1 1 1 1 1 1 0 0 0 0 0 0 0 0 0 0 0 0 0 0 1 1 1 1 1 1 1 1 1 1 1 0 0 0 0 0 1 1 1 1 1 1
1 1 1 1 1 1 1 0 0 0 1 1 0 0 0 0 0 0 0 0 1 1 1 1 1 1 1 1 1 1 1 1 0 0 0 0 0 1 1 1 1 1 1
1 1 1 1 1 1 1 0 0 1 1 1 1 0 0 0 0 0 0 1 1 1 1 1 1 1 1 1 1 1 1 0 0 0 0 0 0 1 1 1 1 1 1
1 1 1 1 1 1 1 1 0 1 1 1 1 0 0 0 0 0 0 1 1 1 1 1 1 1 1 1 1 1 1 1 0 0 0 0 0 0 1 1 1 1 1
1 1 1 1 1 1 1 1 1 1 1 1 1 1 0 0 0 0 0 1 1 1 1 1 1 1 1 1 1 1 1 0 0 0 0 0 0 0 1 1 1 1 1
1 1 1 1 1 1 1 1 1 1 1 1 1 1 1 1 1 1 1 1 1 1 1 1 1 1 1 1 1 1 1 0 0 0 0 0 0 0 1 1 1 1 1
1 1 1 1 1 1 1 1 1 1 1 1 1 1 0 0 0 1 1 1 1 1 1 1 1 1 1 1 1 1 0 0 0 0 0 0 0 0 0 1 1 1 1
1 1 1 1 1 1 1 1 1 1 1 0 0 0 0 0 0 0 0 1 1 1 1 1 1 1 1 1 1 0 0 0 0 1 1 0 0 0 0 1 1 1 1
1 1 1 1 1 1 1 1 1 1 1 0 0 0 0 0 0 0 0 0 0 1 1 1 1 1 1 1 1 0 0 0 1 1 1 1 1 1 1 1 1 1 1
1 1 1 1 1 1 1 1 1 1 1 1 1 1 0 0 0 0 0 0 0 0 1 1 1 1 1 1 1 0 0 1 1 1 1 1 1 1 1 1 1 1 1
1 1 1 1 1 1 1 1 1 1 1 1 1 1 1 1 1 1 1 0 0 0 1 1 1 1 1 1 1 1 1 1 1 1 1 1 1 1 1 1 1 1 1
1 1 1 1 1 1 1 1 2 2 2 1 1 1 1 1 1 1 1 1 1 1 1 1 1 1 1 1 1 1 1 1 1 1 1 0 0 1 1 1 1 1 1
1 1 1 1 1 1 1 1 1 2 2 2 1 1 1 1 1 1 1 1 1 1 1 1 1 1 1 1 1 1 1 1 1 1 0 0 0 1 1 1 1 1 1
1 1 1 1 1 1 1 1 1 1 1 1 1 1 1 1 1 1 1 1 1 1 1 1 1 1 1 1 1 1 1 1 0 0 0 0 0 0 1 1 1 1 1
1 1 1 1 1 1 1 1 1 1 1 1 1 1 1 1 1 1 1 1 1 1 1 1 1 0 0 0 0 0 1 1 0 0 0 0 0 0 0 1 1 1 1
1 1 1 1 1 1 1 1 1 1 1 1 1 1 1 1 1 1 1 1 1 1 1 1 0 0 0 0 0 0 0 0 0 0 0 0 0 1 0 0 0 1 1
0 0 1 1 1 1 1 1 1 2 2 2 1 1 1 1 1 1 1 1 1 1 1 1 0 0 0 0 0 0 0 0 0 0 0 0 0 0 0 0 0 0 0
0 0 0 1 1 1 1 1 1 1 1 2 2 1 1 1 1 1 1 1 1 1 1 1 0 0 0 0 0 0 0 0 0 0 0 0 0 0 0 0 0 0 0
0 0 0 0 1 1 1 1 1 1 1 1 2 1 1 1 1 1 1 1 1 1 1 1 0 0 0 0 0 0 0 0 0 0 0 0 0 0 0 0 0 0 0
0 0 0 0 0 1 1 1 1 1 1 1 1 1 1 1 1 1 1 1 1 1 0 0 0 0 0 0 0 0 0 0 0 0 0 0 0 0 0 0 0 0 0
0 0 0 0 0 0 1 1 1 1 1 1 1 1 2 2 2 1 1 1 1 1 1 0 0 0 0 0 0 0 0 0 0 0 0 0 0 0 0 0 0 0 0
0 0 0 0 0 0 0 0 0 0 1 1 1 2 2 2 1 1 1 1 1 1 1 0 0 0 0 0 0 0 0 0 0 0 0 0 0 0 0 0 0 0 0
0 0 0 0 0 0 0 0 0 1 1 1 1 2 2 2 1 1 1 1 1 1 1 1 0 0 0 0 0 0 0 0 0 0 0 0 0 0 0 0 0 0 0
0 0 0 0 0 0 0 0 0 1 1 1 1 2 2 2 1 1 1 1 1 1 1 1 1 0 0 0 0 0 0 0 0 0 0 0 0 0 0 0 0 0 0
Wind_Speed
6 7 6 7 8 8 8 8 8 8 8 8 8 7 7 7 7 7 6 7 8 8 8 8 8 8 9 9 9 9 10 10 10 10 9 10 10 10 10 9 7 8 11
7 8 7 7 8 8 8 8 8 8 8 8 8 7 7 6 6 7 7 7 8 8 8 8 8 8 8 9 9 9 9 10 10 9 8 8 9 9 9 9 8 7 10
7 8 8 6 7 8 8 8 8 8 8 8 8 7 7 7 7 7 7 7 8 8 8 8 7 7 8 9 9 9 9 9 8 6 4 5 7 9 9 9 9 9 9
7 8 8 6 7 8 8 7 7 7 8 8 8 8 8 7 7 7 7 7 7 7 7 7 7 7 8 8 8 8 8 8 6 3 4 5 5 8 8 8 8 9 9
7 7 7 6 7 8 8 7 7 7 8 7 7 7 7 7 7 7 7 7 7 7 7 7 7 7 7 7 7 7 7 7 4 3 4 4 5 7 7 7 7 8 8
7 7 7 6 7 8 8 7 7 7 7 7 6 6 6 7 7 7 7 6 6 6 7 7 7 7 7 7 7 7 6 5 3 4 4 4 4 6 6 7 7 8 8
7 6 7 6 7 8 8 7 7 7 6 6 6 6 6 6 6 6 6 6 6 5 6 6 6 7 7 7 7 7 6 3 3 3 3 3 4 6 6 7 7 7 7
7 6 6 6 5 6 7 7 7 7 6 6 6 6 6 6 6 6 6 6 6 5 6 6 6 6 7 7 7 6 5 2 3 3 3 3 4 5 6 6 7 7 7
6 6 5 6 6 5 5 6 6 6 6 6 6 5 5 5 5 5 6 6 5 6 6 6 6 6 7 6 6 6 4 2 2 2 3 3 4 5 5 5 5 5 6
5 5 5 5 5 5 5 5 5 6 6 6 6 6 6 5 5 5 5 5 5 6 6 6 6 6 6 6 6 5 3 1 2 2 2 3 4 4 4 4 4 4 4
5 5 5 5 5 5 5 5 5 5 5 5 5 5 4 3 4 4 5 5 5 5 5 5 5 6 6 6 5 3 1 1 2 1 1 3 3 3 3 3 3 3 3
6 5 5 5 5 5 4 4 3 3 3 3 3 3 3 3 2 3 6 5 5 4 4 5 5 5 3 3 3 2 1 2 1 1 2 3 3 2 2 2 2 3 3
6 5 4 5 5 5 4 3 2 2 2 3 3 3 3 3 2 2 2 3 3 3 3 3 3 2 2 1 1 1 1 1 1 1 2 3 2 1 1 1 1 1 2
5 5 4 4 4 5 4 3 3 3 2 2 3 3 3 2 2 2 1 2 2 1 2 2 1 2 2 2 2 1 1 1 0 0 1 2 2 1 0 0 0 0 1
6 6 5 5 5 5 5 4 3 3 3 3 3 3 3 3 3 2 1 1 1 1 2 1 1 2 2 2 1 1 1 1 1 1 1 2 2 1 1 1 1 1 0
7 7 6 6 6 5 5 4 4 4 4 4 3 4 4 3 3 3 2 2 2 1 1 1 1 1 1 1 1 1 1 1 1 2 1 1 1 2 2 1 1 1 1
7 6 6 6 6 6 5 5 4 4 4 4 3 4 4 4 4 3 2 2 2 2 2 2 2 1 1 1 1 2 1 1 2 2 2 1 1 0 2 2 3 2 2
6 6 6 5 6 6 5 5 4 4 4 4 4 4 4 4 4 3 3 2 2 2 2 2 2 2 1 1 1 1 1 1 2 2 2 2 1 1 1 2 3 3 3
6 6 6 6 6 6 5 4 4 4 4 4 3 3 4 5 5 4 3 2 3 2 2 2 2 2 2 1 1 1 1 2 2 2 2 2 2 2 1 0 1 3 3
5 5 6 6 6 5 4 4 3 4 3 3 3 3 4 4 4 4 3 3 4 3 3 3 3 2 2 1 1 1 2 2 2 2 2 2 2 2 2 2 2 1 3
4 5 6 6 5 4 4 4 4 4 4 3 3 4 5 4 5 4 3 4 4 4 4 4 3 3 2 1 1 1 2 2 3 2 2 2 2 3 3 3 3 3 2
4 4 5 6 6 6 4 4 3 3 3 3 3 3 4 4 4 4 4 4 4 4 5 4 4 2 2 2 2 1 2 3 3 2 2 2 3 2 3 3 3 3 3
3 4 4 6 6 6 5 3 3 3 3 3 4 4 4 4 4 4 5 5 5 5 4 5 5 5 3 3 2 2 2 2 1 2 2 2 2 2 2 2 3 3 4
2 3 4 5 5 5 5 5 6 5 5 5 4 4 4 4 4 4 4 5 5 4 4 4 5 4 4 4 3 3 2 1 2 1 2 2 2 3 3 2 3 3 3
1 1 2 4 4 5 5 6 7 6 5 4 4 4 4 4 4 4 4 4 4 4 5 5 5 5 4 4 3 3 3 3 3 3 3 2 2 3 3 3 3 3 3
1 0 1 2 3 3 4 5 6 6 5 5 5 4 4 3 4 4 4 4 4 4 5 5 5 6 5 5 4 4 3 3 4 4 4 3 3 2 3 3 3 3 3
Wind_Direction
163 161 157 156 148 140 135 135 134 130 128 125 122 118 119 122 123 120 118 119 113 108 101 97 93 90 87 86 85 81 78 76 75 75 77 78 79 80 79 74 76 81 78
154 159 154 153 147 141 135 135 135 136 134 131 128 125 120 120 124 124 116 116 113 110 105 100 94 91 89 88 86 84 81 76 73 72 75 84 82 79 78 73 68 74 77
150 156 159 153 148 140 136 139 139 139 139 136 133 128 120 117 119 120 119 116 114 112 106 102 98 93 92 90 88 87 83 79 77 74 80 90 88 83 78 76 75 76 77
151 157 158 147 146 141 138 139 140 140 139 138 134 129 124 120 118 117 119 117 115 112 108 104 101 97 95 94 93 92 88 83 78 79 91 83 86 84 81 78 79 77 78
150 156 148 148 148 143 141 139 136 136 134 134 134 132 131 128 124 121 118 118 116 113 112 109 104 103 99 99 98 96 93 88 86 99 85 81 83 83 82 80 79 75 76
147 149 142 140 142 138 139 141 139 136 134 131 134 137 137 135 131 126 124 120 115 113 114 108 102 105 102 102 103 100 97 93 119 100 91 88 85 87 85 84 83 79 75
148 148 144 135 136 135 134 133 134 132 127 124 125 129 134 133 128 127 127 122 118 117 115 109 105 102 101 103 104 99 93 83 104 101 98 93 84 88 89 85 83 83 80
147 148 145 129 125 130 133 131 130 127 121 119 119 120 121 127 129 126 124 121 115 116 116 112 110 109 103 102 101 98 88 79 117 103 97 92 83 91 92 87 82 79 80
146 150 151 151 143 128 122 122 121 118 116 114 113 109 105 105 112 119 118 119 118 117 115 111 109 107 104 100 97 93 86 52 115 102 101 90 86 100 97 89 83 75 75
150 153 155 156 157 154 143 118 112 108 106 105 101 95 96 100 104 103 109 108 113 113 112 112 110 107 104 100 96 90 90 173 113 107 102 90 90 96 93 88 83 83 81
162 165 165 162 161 161 155 137 129 117 110 116 113 103 119 139 135 125 102 95 101 106 109 114 113 112 112 105 95 89 136 126 112 100 98 81 93 93 84 84 87 90 87
184 182 178 177 170 168 160 158 160 154 147 152 144 145 149 143 130 126 100 89 90 99 108 111 115 125 139 136 123 148 151 138 133 112 77 60 83 95 91 81 91 94 96
194 189 191 186 181 177 170 169 164 160 153 153 150 157 152 148 143 145 139 129 124 130 138 135 153 158 152 147 160 162 152 163 148 118 70 43 67 91 97 89 86 109 118
200 197 195 191 189 188 183 177 173 169 165 163 159 172 167 161 161 161 159 153 156 157 159 169 163 150 159 164 169 168 168 182 168 128 65 30 21 35 78 154 105 125 141
207 204 201 196 193 192 189 186 182 178 179 171 167 178 178 172 171 167 165 166 173 175 176 173 163 161 176 186 179 182 183 182 196 205 139 53 5 339 280 265 263 240 221
213 208 202 198 196 193 195 192 190 184 182 181 177 178 179 180 177 175 175 177 183 185 180 178 169 173 181 176 174 190 199 197 211 223 224 159 51 333 308 287 266 253 255
219 211 204 200 198 196 197 197 195 188 186 186 183 183 182 183 183 180 179 181 183 181 173 156 150 154 160 179 183 191 194 206 218 230 240 242 205 62 318 304 284 266 256
221 211 201 194 199 201 200 199 198 193 190 190 187 184 185 186 185 184 185 184 177 172 170 167 167 171 177 194 211 211 209 205 224 233 239 237 242 240 231 316 309 293 276
218 209 200 197 200 203 201 199 195 193 196 194 190 188 188 187 188 190 189 182 179 174 174 177 186 193 191 191 230 242 239 228 229 225 230 233 238 245 249 286 308 310 296
220 205 200 198 200 198 195 193 187 188 195 196 192 191 189 185 186 192 185 180 181 181 177 180 185 187 197 192 215 242 242 243 241 234 237 236 244 250 252 260 255 260 279
220 207 200 198 195 188 190 194 196 197 196 195 195 193 194 188 185 189 184 181 187 189 184 181 180 181 189 184 208 240 237 231 238 241 241 237 233 242 249 256 262 266 253
221 217 207 202 198 196 199 202 206 201 201 199 192 198 199 193 188 192 194 186 187 189 184 181 176 187 185 196 214 227 239 214 213 229 232 235 236 230 242 250 256 263 270
231 227 216 208 205 203 196 187 182 187 192 198 205 206 207 201 191 194 203 193 189 191 191 189 188 196 194 196 224 234 233 235 217 196 223 232 228 231 242 248 257 264 270
250 238 224 213 205 200 193 194 195 200 207 210 207 205 198 199 198 199 202 198 191 193 193 193 195 202 202 197 203 240 270 301 244 232 208 221 243 252 246 248 255 259 265
279 242 222 209 200 196 198 203 204 213 219 210 199 202 195 194 203 203 199 196 196 199 199 196 194 198 204 210 202 200 213 232 244 249 249 236 239 244 249 253 259 258 259
343 281 202 194 192 196 202 207 211 213 213 207 203 200 198 196 200 205 199 201 206 206 203 201 200 200 203 210 213 210 208 211 214 224 245 260 262 248 247 249 247 251 255